Location: Charlottetown
(46.2330°N, 63.1330°W)
Time: 11:52:28
(UTC-03:00)

Daily predictions for brighter satellites

Satellite Brightness Start Highest point End
(mag) Time Altitude Azimuth Time Altitude Azimuth Time Altitude Azimuth
Cosmos 2322 Rocket 2.2 20:39:01 10° S 20:44:30 60° ESE 20:50:03 10° NNE
CZ-4C R/B 4.3 20:40:07 10° NNW 20:45:19 23° NNE 20:51:02 10° ENE
ALOS 4.0 20:44:04 10° SSW 20:48:21 36° W 20:52:41 10° NNW
Resurs 01 Rocket 2.3 20:45:59 10° S 20:50:23 59° WSW 20:54:48 10° NNW
COSMOS 2428 4.4 20:49:35 10° ESE 20:51:55 13° E 20:54:14 10° ENE
Cosmos 2360 Rocket 3.0 20:48:24 10° SSE 20:53:08 29° ESE 20:57:56 10° NE
Cosmos 1980 Rocket 3.4 20:48:25 10° SW 20:53:54 48° WNW 20:59:26 10° NNE
H-2A R/B 4.3 20:51:49 10° SSW 20:55:28 39° W 20:59:07 10° NNW
Cosmos 1503 Rocket 4.4 20:51:20 10° NNW 20:56:34 67° WSW 21:01:43 10° S
Cosmos 1869 3.5 20:53:03 10° SSW 20:56:59 75° W 21:00:58 10° N
Cosmos 1825 2.2 20:54:04 10° N 20:57:54 86° W 21:01:42 10° S
SAR-Lupe-4 3.5 20:55:12 10° SSE 20:58:45 71° ENE 21:02:22 10° N
Spot 2 Rocket 4.3 20:56:03 10° S 21:01:02 55° W 21:06:02 10° NNW
Cosmos 968 Rocket 3.9 20:58:20 10° NNW 21:03:22 48° ENE 21:08:24 10° SE
Cosmos 1908 Rocket 4.3 20:59:55 10° N 21:03:54 34° ENE 21:07:52 10° SE
Sich 1 Rocket 4.3 21:01:02 10° N 21:05:12 36° ENE 21:09:22 10° SE
ATLAS 5 CENTAUR R/B 2.5 20:59:45 10° NW 21:05:40 77° NE 21:12:01 11° SE
BREEZE-M DEB (TANK) 4.2 21:02:10 10° W 21:06:45 84° S 21:26:04 10° ESE
Cosmos 2322 4.4 21:03:09 10° SSE 21:08:09 32° ESE 21:13:11 10° NE
Cosmos 2026 Rocket 4.1 21:02:03 10° N 21:08:18 80° W 21:14:26 10° S
GENESIS II 4.2 21:06:22 10° SSW 21:10:25 82° SE 21:14:29 10° NE
Cosmos 1408 3.5 21:09:58 10° NNW 21:13:34 51° W 21:17:07 10° S
SL-16 R/B 2.3 21:08:43 10° SSW 21:14:24 84° WNW 21:20:07 10° NNE
Cosmos 1867 3.6 21:10:15 10° NNW 21:15:45 74° NE 21:20:36 13° SE
USA 234 3.3 21:09:20 11° SE 21:15:45 89° NE 21:22:20 10° NW
SAR-Lupe-1 4.1 21:12:34 10° SSE 21:16:08 83° WSW 21:19:45 10° NNW
ARGOS 4.2 21:14:51 13° ESE 21:18:53 30° ENE 21:23:30 10° N
Meteor 1-29 2.9 21:17:28 10° NNE 21:20:57 73° ESE 21:24:23 10° S
Envisat 3.1 21:16:01 10° S 21:21:05 80° WSW 21:26:13 10° NNW
Cosmos 1733 Rocket 3.4 21:17:21 10° NNW 21:21:48 69° W 21:26:13 10° S
H-2A R/B 3.6 21:19:08 12° E 21:22:10 19° ENE 21:25:37 10° NNE
Terra 4.0 21:23:51 10° ENE 21:25:31 12° NE 21:27:11 10° NE
Okean 2 Rocket 4.1 21:26:13 10° N 21:30:12 30° ENE 21:32:39 18° ESE
Cosmos 2333 Rocket 4.0 21:31:29 12° E 21:31:38 12° E 21:33:54 10° ENE
Cosmos 2278 Rocket 3.9 21:27:45 10° N 21:31:55 20° NE 21:35:52 11° E
Cosmos 1862 Rocket 3.8 21:29:03 10° SSW 21:33:31 75° W 21:38:02 10° N
Cosmos 1933 3.4 21:29:34 10° SSW 21:33:36 79° W 21:37:39 10° N
Cosmos 1844 Rocket 3.4 21:28:39 10° NNW 21:33:52 39° NE 21:37:35 18° ESE
Okean 1-7 4.0 21:31:49 18° SE 21:34:18 30° E 21:38:08 10° NNE
Helios 1A 4.1 21:31:17 10° S 21:35:19 43° W 21:39:24 10° NNW
Abrixas rocket 2.8 21:33:39 10° W 21:36:54 56° N 21:39:37 14° ENE
ERS-1 Rocket 2.9 21:42:04 14° SSE 21:46:23 86° ENE 21:51:26 10° NNW
MetOp-A 4.2 21:44:08 18° SSE 21:48:06 66° ENE 21:53:25 10° N
YAOGAN 6 2.8 21:47:03 16° S 21:49:53 70° WSW 21:53:29 10° NNW
SeaSat 1 3.0 21:48:09 22° ESE 21:51:04 47° NE 21:55:48 10° NNW
Cosmos 1703 Rocket 3.5 21:49:54 12° S 21:54:00 70° E 21:58:25 10° NNE
NOSS 3-1 (C) 4.3 21:55:19 23° SE 21:56:55 26° ESE 22:02:02 10° ENE
Cosmos 2219 Rocket 3.2 21:55:57 23° ESE 21:56:59 25° ESE 22:01:28 10° NE
Cosmos 2266 Rocket 4.0 21:50:48 10° N 21:57:07 87° E 22:02:32 15° S
Meteor 2-10 Rocket 3.9 21:53:22 10° SSW 21:59:12 80° WNW 22:05:00 10° N
Meteor 1-26 Rocket 4.3 21:54:19 10° S 22:00:01 90° ENE 22:05:53 10° N
Cosmos 1782 3.6 22:00:37 31° ESE 22:01:20 33° E 22:04:58 10° NNE
USA 229 DEB 3.6 21:55:15 10° SSW 22:02:00 67° ESE 22:08:54 10° NE
USA 229 3.6 21:55:22 10° SSW 22:02:07 66° ESE 22:09:00 10° NE
SPOT 1/Viking Rocket 3.8 22:07:02 29° SE 22:09:36 57° ENE 22:14:42 10° N
YAOGAN 11 4.1 22:09:51 27° S 22:12:11 83° WSW 22:16:32 10° NNW
NOSS 3-1 (A) 4.3 22:13:10 25° ESE 22:13:10 25° ESE 22:18:03 10° ENE
Cosmos 2221 Rocket 3.5 22:10:49 20° S 22:13:49 85° E 22:18:16 10° N
SPOT 5 2.7 22:11:25 29° SSE 22:13:53 84° ENE 22:18:30 10° NNW
Cosmos 1777 Rocket 4.0 22:09:46 10° NNW 22:15:05 86° WSW 22:17:47 30° SSE
Cosmos 2263 Rocket 4.0 22:11:00 10° NW 22:15:30 26° WSW 22:20:00 10° SSW
Cosmos 1346 Rocket 4.4 22:18:29 21° ENE 22:18:29 21° ENE 22:20:48 10° NE
Atlas Centaur 2 3.9 22:16:02 10° SW 22:21:34 24° S 22:22:34 23° SSE
USA 267 4.3 22:16:21 10° NE 22:22:33 47° NNW 22:28:44 10° W
ASTEX 1 4.1 22:22:50 32° ESE 22:24:03 37° ENE 22:28:38 10° N
MOS 1-B Rocket 3.8 22:22:24 27° SSE 22:25:46 87° WSW 22:31:24 10° NNW
Cosmos 2237 4.2 22:20:15 10° SSW 22:26:00 89° ESE 22:31:46 10° NNE
IGS 5A 4.4 22:27:13 31° E 22:27:42 32° ENE 22:31:24 10° N
Cosmos 2322 Rocket 4.4 22:24:17 10° WSW 22:28:58 26° NW 22:33:40 10° N
Cosmos 1633 3.0 22:26:57 10° N 22:30:27 44° ENE 22:30:27 44° ENE
SL-08 RB Rocket 3.6 22:29:21 39° S 22:31:03 86° WSW 22:35:38 10° NNW
Meteor 1-10 Rocket 4.3 22:29:44 30° S 22:32:42 67° E 22:38:31 10° NNE
Meteor 1-11 Rocket 4.0 22:29:03 10° N 22:34:24 49° ENE 22:35:59 38° ESE
Cosmos 1553 Rocket 4.3 22:32:35 35° SE 22:34:34 46° E 22:40:27 10° NNE
COSMOS 2428 2.6 22:29:33 10° SSW 22:35:13 82° ESE 22:40:59 10° NNE
CZ-4C R/B 3.1 22:28:26 10° NW 22:35:17 59° NE 22:39:16 29° ESE
Cosmos 2360 Rocket 3.1 22:31:25 10° SW 22:36:53 49° WNW 22:42:24 10° NNE
H-2A R/B 2.3 22:37:08 47° E 22:37:45 51° ENE 22:42:00 10° N
ATLAS 3B R/B 4.4 22:35:16 10° NNW 22:40:54 25° NNE 22:46:18 10° ENE
Cosmos 1844 3.6 22:40:24 10° NNW 22:46:06 82° WSW 22:47:58 44° SSE
Cosmos 1980 4.2 22:47:02 39° ESE 22:47:02 39° ESE 22:52:15 10° NE
Landsat 7 3.7 22:46:15 54° SSE 22:47:20 81° ENE 22:52:08 10° NNW
ATLAS 5 CENTAUR R/B 4.1 22:45:15 10° WNW 22:49:59 24° WSW 22:53:36 15° SSW
SL-16 R/B 4.0 22:54:46 16° ENE 22:54:46 16° ENE 22:56:47 10° ENE
Cosmos 1606 2.8 22:56:20 65° WSW 22:56:35 68° W 23:00:22 10° N
Geosat 4.4 22:53:10 10° NE 22:57:34 44° E 22:57:34 44° E
ARGOS 4.0 22:56:21 26° SSW 22:58:57 43° W 23:04:05 10° NNW
USA 234 4.5 22:56:41 22° SSW 22:59:16 29° SW 23:04:50 10° WNW
Cosmos 1300 Rocket 3.6 22:55:06 10° N 22:59:26 61° ENE 22:59:26 61° ENE
CZ-4B R/B 4.2 22:55:12 10° NNE 22:58:55 34° ENE 22:58:55 34° ENE
H-2A R/B 2.2 22:59:46 44° SSW 23:01:10 62° WSW 23:06:05 10° NNW
Cosmos 1536 3.5 22:57:49 10° N 23:01:14 42° NE 23:01:14 42° NE
Terra 1.7 23:01:51 66° SE 23:02:28 80° ENE 23:07:15 10° NNW
S3M 3.9 23:03:16 47° SSE 23:05:04 73° E 23:11:17 10° NNE
Cosmos 2298 Rocket 4.3 23:01:38 10° NNW 23:06:53 53° ENE 23:07:41 48° E
DMSP B5D2-2 4.0 23:03:02 10° NNE 23:08:21 81° ESE 23:09:26 57° S
TRAILBLAZER 4.5 23:11:04 80° SW 23:11:19 90° NW 23:15:54 10° NE
Abrixas rocket 4.0 23:10:33 10° WNW 23:12:17 28° WNW 23:12:17 28° WNW
CZ-4C R/B 4.3 23:15:05 36° NE 23:15:05 36° NE 23:17:42 10° N
Cosmos 2237 Rocket 2.2 23:14:04 59° SE 23:14:21 59° ESE 23:19:58 10° NNE
Cosmos 2333 Rocket 2.1 23:13:24 51° S 23:14:55 80° ESE 23:20:44 10° NNE
Spot 4 3.9 23:15:33 60° E 23:15:42 60° ENE 23:20:25 10° N
Cosmos 2278 Rocket 2.1 23:11:03 10° NNW 23:16:45 84° WSW 23:17:43 63° SSE
Cosmos 1844 Rocket 3.7 23:12:40 10° NW 23:17:43 36° WSW 23:19:16 30° SW
Cosmos 1570 Rocket 4.1 23:17:37 42° SW 23:19:23 73° WNW 23:24:42 10° NNE
Meteor 2-11 Rocket 4.3 23:22:10 57° S 23:23:29 81° E 23:29:36 10° N
Cosmos 1378 Rocket 4.2 23:26:42 48° NE 23:26:42 48° NE 23:30:11 10° NNE
CZ-4 R/B 3.8 23:22:31 10° NNE 23:27:11 75° E 23:27:11 75° E
Cosmos 2208 Rocket 4.2 23:26:54 42° SW 23:28:37 68° WNW 23:33:56 10° NNE
SeaSat 1 3.8 23:27:56 27° SW 23:28:45 28° WSW 23:32:59 10° NW
Cosmos 1937 Rocket 3.5 23:23:38 10° NNW 23:28:53 67° ENE 23:29:09 66° E
Cosmos 2084 4.4 23:25:54 10° NW 23:28:36 37° W 23:28:36 37° W
deb Chang Zheng 4 3.8 23:29:45 10° N 23:34:08 65° WNW 23:34:10 65° WNW
Cosmos 1745 Rocket 4.2 23:29:25 10° NNW 23:35:42 67° W 23:37:20 49° SSW
Meteor 1-5 Rocket 4.1 23:32:06 10° N 23:37:47 87° E 23:38:22 73° SSE
Cosmos 990 Rocket 4.0 23:34:17 10° NNW 23:39:26 69° ENE 23:39:26 69° ENE
Cosmos 858 Rocket 4.3 23:34:31 10° NNW 23:39:47 84° WSW 23:39:51 84° SW
Cosmos 2219 Rocket 2.7 23:37:34 26° SW 23:40:33 55° WNW 23:46:06 10° NNE
Cosmos 2150 Rocket 3.9 23:36:03 10° NNW 23:41:32 88° ENE 23:41:46 83° SE
Cosmos 2285 Rocket 4.1 23:46:09 55° ESE 23:46:09 55° ESE 23:52:21 10° NNE
NOSS 3-1 (C) 3.8 23:42:31 17° SW 23:47:09 65° NW 23:53:48 10° NE
Okean 3 4.2 23:50:28 51° N 23:50:28 51° N 23:53:42 10° N
Cosmos 1898 Rocket 3.7 23:47:03 10° NNW 23:52:04 57° WSW 23:52:04 57° WSW
Iridium 4 Rocket 4.1 23:49:21 10° NNW 23:52:52 39° WNW 23:52:52 39° WNW
Cosmos 1346 Rocket 4.4 23:53:59 30° WNW 23:53:59 30° WNW 23:57:30 10° N
